GFSWCAN_sfc_thetae_135.txt.gz
Theta_e
308 308 308 307 307 306 307 307 307 308 309 309 309 309 309 308 309 300 296 297 294 290 294 301 301 297 297 295 294 298 299 302 297 294 293 291 291 292 291 292 292 291 290 290 289 288 288 307 307 300 302 305 308 308
307 307 307 307 306 306 306 307 307 307 309 309 309 309 309 308 308 302 292 299 299 293 294 301 305 306 304 302 296 296 299 299 302 297 296 295 294 292 289 288 296 290 296 294 295 294 302 305 307 308 307 307 307 308
306 306 307 307 306 305 306 307 307 307 309 309 309 309 309 308 309 304 295 295 295 291 293 293 295 303 305 305 304 297 300 301 300 303 300 299 296 295 291 292 292 296 298 295 297 301 303 307 307 309 309 309 310 311
305 306 306 306 306 306 306 307 306 307 308 309 309 309 308 309 308 306 295 295 294 292 288 292 302 299 304 303 305 304 303 301 302 302 298 296 296 296 293 295 293 296 297 295 297 301 303 307 309 308 310 311 313 314
306 306 306 306 306 306 305 306 306 306 308 309 309 309 309 308 307 302 295 296 297 293 288 290 296 299 301 302 304 303 300 299 300 299 297 296 297 297 295 295 294 299 297 294 293 299 300 304 310 312 311 311 311 312
306 306 306 306 306 306 306 306 306 306 308 308 309 309 308 308 305 295 291 296 298 297 291 287 295 297 299 300 300 299 300 300 299 298 296 297 299 298 294 293 299 303 307 301 301 306 308 311 312 312 308 310 313 311
306 305 305 306 306 306 306 306 306 306 307 308 308 308 307 306 296 291 291 297 300 296 292 290 290 297 299 297 298 297 299 299 298 296 297 297 298 299 294 293 299 307 308 309 311 310 306 310 307 309 309 311 311 311
306 305 305 305 306 306 306 306 306 307 308 308 307 306 306 305 300 293 299 304 300 293 294 288 290 294 298 295 294 296 294 296 298 297 298 296 297 296 292 297 300 308 308 309 309 308 306 309 309 309 310 311 310 311
305 305 306 306 306 306 306 305 306 307 307 307 307 305 297 294 290 294 307 306 297 298 291 290 288 289 300 295 295 296 296 291 295 295 296 298 294 293 297 299 305 307 307 307 310 311 308 308 307 309 310 310 309 310
305 305 305 305 305 305 305 306 306 307 307 306 298 293 288 296 307 309 300 295 294 294 293 289 291 291 298 297 294 294 294 292 290 293 295 294 293 298 300 303 305 308 307 308 306 305 304 306 308 308 309 309 309 309
305 305 305 305 305 305 306 306 307 305 302 294 291 295 302 308 301 296 290 289 290 289 290 291 292 290 297 296 296 298 293 294 290 292 292 289 289 297 304 304 305 306 306 306 308 307 306 307 309 308 307 308 306 304
305 305 305 305 305 306 306 307 305 297 294 297 301 304 303 298 292 292 288 289 289 288 291 290 291 293 295 302 301 302 298 295 290 298 293 290 295 300 306 307 307 306 310 311 313 312 312 312 312 309 305 304 303 302
305 305 305 305 305 306 307 306 305 305 304 302 299 297 294 292 286 288 285 287 287 292 297 295 291 295 299 302 302 300 296 292 299 293 293 294 298 303 303 306 306 308 310 312 312 312 311 310 309 306 304 303 302 301
305 305 305 305 307 307 307 306 305 303 297 294 293 279 288 286 287 287 292 295 297 299 300 296 292 295 298 297 298 297 296 298 292 289 291 296 300 302 305 305 306 306 310 310 308 308 307 307 307 306 304 303 302 301
305 306 307 307 307 307 306 306 305 299 295 293 291 284 287 294 297 299 295 293 297 298 297 295 295 295 294 297 295 295 293 291 293 292 295 299 303 304 304 304 305 307 308 308 310 308 308 307 305 303 301 300 300 299
306 306 303 307 307 306 305 302 297 298 294 293 292 285 290 289 291 293 293 294 301 298 297 297 293 292 292 293 292 291 291 289 291 298 299 301 302 304 306 307 307 307 307 308 310 309 307 304 302 300 301 300 299 299
306 298 306 306 306 305 305 297 295 296 292 294 291 291 290 291 291 293 296 298 305 298 295 298 292 290 294 291 291 293 291 293 302 305 305 304 306 308 311 311 311 310 308 311 311 309 307 304 302 301 299 300 300 299
298 302 306 305 301 301 299 298 297 296 291 290 288 290 293 294 294 294 297 303 300 295 296 295 298 292 291 291 291 293 302 300 300 302 302 305 306 308 309 307 307 306 307 308 307 306 307 305 301 301 304 302 300 299
301 302 306 307 304 298 294 294 294 289 291 295 293 293 295 296 297 298 300 302 303 303 300 297 295 293 295 298 296 298 303 301 301 303 304 307 307 305 304 303 303 304 305 305 306 307 304 304 303 303 303 302 300 299
306 306 307 307 306 299 297 297 300 294 291 294 294 293 295 296 298 300 303 304 305 303 300 299 298 299 298 301 305 305 306 307 306 305 304 303 302 302 301 302 303 304 304 302 304 300 300 300 299 299 304 304 298 295
304 303 306 304 302 300 299 296 294 295 294 292 296 298 297 300 301 302 303 306 301 300 300 303 303 304 308 310 309 309 308 307 303 301 298 298 300 300 300 301 303 306 304 301 299 300 298 297 297 299 301 302 298 294
303 307 304 303 298 296 295 298 294 296 294 295 297 298 296 297 301 302 305 303 303 304 305 305 306 305 306 307 308 308 306 302 301 300 299 298 298 299 299 300 300 298 301 303 300 299 298 297 295 298 298 296 293 292
305 303 298 296 290 288 289 299 293 295 293 299 302 300 299 300 301 304 298 300 300 303 304 303 304 308 308 309 307 304 304 303 299 298 300 300 300 301 301 300 299 298 297 297 298 297 295 294 295 297 296 294 292 292
306 300 295 293 290 289 296 296 296 299 299 296 295 294 295 296 298 295 294 299 303 305 305 303 301 303 304 305 303 304 305 303 299 299 299 299 298 297 298 296 297 297 298 298 295 294 294 294 293 294 295 295 293 292
293 293 296 289 299 296 298 298 297 297 295 295 294 293 293 296 292 294 294 298 300 301 303 302 304 304 300 302 302 301 307 302 301 303 304 305 301 297 298 295 295 295 296 296 295 295 294 294 294 294 294 294 294 293
289 298 294 297 297 297 298 297 297 296 298 296 295 296 296 294 291 291 295 300 298 300 301 301 298 299 297 299 299 300 305 305 304 300 299 302 302 301 299 297 297 296 296 296 296 296 296 295 295 295 295 294 293 294
295 299 299 301 299 301 299 298 300 296 295 293 294 295 293 288 290 296 300 303 299 299 300 299 298 297 296 296 297 298 299 299 300 302 300 300 300 300 298 297 295 295 296 297 297 297 297 296 296 296 296 295 295 295
298 298 296 297 296 296 295 294 295 293 295 298 298 294 293 292 293 299 300 302 299 300 299 303 302 298 297 297 298 298 298 299 300 298 299 298 297 297 296 296 296 295 297 297 297 296 296 296 296 296 296 296 295 297
297 299 299 297 297 297 295 295 294 295 295 295 293 292 295 297 300 300 302 302 301 302 300 301 299 299 299 299 298 297 297 299 301 299 298 295 294 296 298 297 296 297 296 297 295 296 297 297 297 296 296 295 297 298
298 299 297 297 296 295 297 298 297 299 299 298 298 297 297 300 302 304 300 301 299 298 299 300 298 298 297 296 296 297 297 297 298 298 297 297 298 298 298 298 298 298 298 297 301 301 295 297 297 298 297 298 298 298
300 299 299 297 297 300 300 300 300 300 299 298 298 297 296 297 300 301 302 299 299 300 299 298 297 297 298 297 297 296 295 297 296 297 296 295 295 296 297 297 297 297 298 299 299 302 300 299 300 300 299 299 300 298
300 298 297 296 296 301 302 300 300 298 299 300 300 299 298 297 296 302 303 302 300 299 298 298 297 298 298 297 298 299 296 298 298 297 295 294 294 295 295 294 296 298 299 299 299 302 302 302 300 300 300 300 300 300
299 300 301 300 299 299 301 301 300 301 302 300 301 300 298 297 296 300 303 303 303 303 302 301 300 299 300 300 299 299 298 300 296 293 293 292 292 292 292 294 296 298 298 297 297 297 297 300 300 299 300 300 300 300

GFSWCAN_sfc_thetae_138.txt.gz
Theta_e
306 307 307 307 307 306 306 306 307 307 307 309 309 309 309 308 309 299 295 296 294 289 291 297 299 294 295 294 293 297 298 300 296 292 292 290 290 291 290 291 289 291 290 289 289 287 288 306 307 301 302 306 309 309
305 306 307 307 307 306 306 306 307 307 307 309 309 309 309 308 308 301 292 298 298 291 292 297 300 303 302 300 295 294 297 297 300 295 293 293 292 290 287 288 294 291 293 293 293 292 300 305 305 308 308 307 309 310
305 306 306 306 306 306 305 305 306 307 307 308 309 309 309 308 308 303 295 295 294 291 292 292 293 299 303 304 301 293 298 299 298 301 298 297 294 294 291 291 292 295 297 296 297 301 304 307 308 310 311 309 310 311
304 304 305 306 306 306 306 305 306 306 306 308 309 309 309 308 308 306 296 295 294 292 287 291 300 297 301 302 303 301 300 299 300 300 297 295 295 295 291 294 293 296 297 296 297 301 304 308 309 310 310 313 313 314
305 305 306 306 306 306 306 305 306 306 306 308 309 309 309 308 307 301 296 296 296 293 288 290 295 297 297 299 302 301 300 298 299 298 296 294 294 296 293 293 294 298 296 296 296 301 300 304 310 313 311 311 312 312
305 305 305 305 305 306 306 305 306 306 306 307 308 309 308 307 303 294 291 296 297 297 291 287 294 297 298 297 299 295 297 298 299 298 295 296 297 296 292 291 297 300 303 300 301 303 306 309 311 312 309 312 313 310
305 305 305 305 306 306 306 305 306 306 306 307 308 308 307 306 295 290 291 296 299 296 292 290 291 297 299 295 295 296 297 297 297 295 296 297 298 298 294 292 300 302 307 308 308 309 307 310 306 309 310 311 312 314
305 305 305 305 305 306 305 305 305 306 307 308 307 307 306 304 299 292 296 303 299 292 294 288 290 294 299 294 293 294 294 294 296 295 296 295 297 296 293 298 301 307 309 309 308 307 307 310 310 310 311 313 312 311
305 305 305 305 305 305 305 305 305 306 307 307 306 304 296 293 289 294 308 305 296 297 290 290 288 289 299 295 295 295 294 290 294 293 294 295 291 290 294 297 299 305 307 307 309 309 309 308 308 309 310 311 309 308
305 305 305 305 305 305 305 305 306 306 306 305 297 292 292 294 305 306 300 294 293 292 292 288 289 289 295 296 294 294 293 291 290 293 295 292 291 296 298 299 304 307 308 311 307 304 305 307 309 309 308 309 309 306
304 304 304 305 305 304 305 305 306 304 300 293 290 294 301 308 301 294 289 288 288 286 288 289 290 288 294 294 293 296 291 292 289 292 292 289 289 295 302 304 305 308 308 307 308 308 308 309 308 307 306 305 304 303
305 305 305 304 304 305 306 306 305 296 293 295 300 304 303 298 292 290 286 288 286 286 290 289 293 291 292 300 296 297 294 293 288 296 292 289 293 298 303 304 305 305 309 310 310 309 311 310 308 306 304 302 301 302
305 305 305 305 305 305 307 306 304 305 303 303 298 294 289 289 286 286 283 285 286 291 297 294 292 295 295 299 299 296 293 291 297 292 292 294 297 302 304 305 305 309 311 312 311 311 310 308 306 304 302 302 301 300
305 305 305 305 306 307 307 306 305 303 297 293 292 281 286 284 285 288 289 292 297 299 299 297 290 295 297 295 297 295 294 296 291 289 291 295 300 302 303 306 309 309 310 309 309 308 306 305 304 305 304 303 302 300
305 306 306 307 307 307 306 305 304 298 293 293 291 284 286 294 297 298 296 292 297 301 296 295 292 294 293 296 294 293 292 290 292 291 294 299 301 303 304 305 307 308 307 306 307 306 307 306 304 302 302 301 300 299
306 305 304 307 306 306 304 300 296 296 292 292 292 285 289 288 291 290 294 292 297 302 295 295 292 291 291 293 292 291 290 288 290 295 298 300 301 303 305 306 307 309 307 306 305 306 305 304 300 300 300 300 300 300
304 297 306 306 305 305 304 295 294 294 290 292 287 288 287 287 288 289 293 295 304 295 291 293 290 288 292 289 290 292 290 292 301 301 301 302 303 304 305 306 308 309 308 308 306 306 305 303 302 301 299 300 301 301
297 302 306 304 301 300 297 296 295 295 292 290 285 287 289 291 290 291 294 300 297 293 295 295 295 290 289 289 290 292 302 302 301 306 307 308 309 310 311 309 310 311 311 310 308 306 305 304 301 300 300 302 301 302
300 301 306 307 303 298 293 293 293 288 289 290 290 292 292 292 294 295 297 301 303 302 298 296 293 291 291 294 294 298 303 298 300 301 303 306 308 308 307 307 308 308 309 308 308 307 305 303 303 303 303 304 302 302
306 306 306 307 306 299 296 297 300 294 291 293 294 293 295 296 296 299 300 302 303 302 299 296 295 297 299 298 300 303 301 302 302 301 304 303 303 305 305 305 304 304 305 305 305 301 303 303 302 302 304 305 304 300
302 303 305 303 300 300 298 297 294 295 294 292 296 296 297 299 299 299 302 305 301 300 299 302 301 302 302 305 305 306 306 307 305 306 304 302 303 301 301 304 305 306 306 304 303 302 299 300 300 301 301 303 302 298
302 306 303 303 297 295 293 297 294 294 291 292 295 298 296 297 299 300 304 301 300 303 304 303 304 306 305 306 307 308 307 305 303 301 298 299 300 300 300 302 303 302 304 304 303 301 300 300 298 298 300 300 295 294
304 302 298 296 291 288 289 298 292 294 292 297 299 297 297 298 299 303 298 300 302 304 306 306 307 308 308 308 307 304 304 302 301 300 300 300 300 301 301 302 303 301 300 300 301 301 299 295 297 300 298 296 294 294
305 299 294 292 290 289 296 296 297 297 297 294 294 293 294 295 299 297 296 297 301 303 304 304 304 303 303 304 302 302 302 299 298 298 299 299 299 298 298 298 298 299 300 300 298 297 297 297 295 298 297 296 295 295
293 293 294 289 296 295 296 297 296 294 292 293 292 292 293 295 292 294 294 298 300 302 304 303 302 304 303 302 300 304 306 302 303 303 301 301 298 297 298 298 297 298 299 298 297 297 297 296 296 297 298 297 295 295
289 296 291 297 297 296 296 296 295 295 297 294 295 295 294 293 292 292 296 300 299 300 301 299 301 299 297 299 301 302 305 306 304 302 304 304 301 299 299 298 297 298 299 298 298 298 298 297 297 297 296 296 293 296
291 296 298 299 298 297 296 297 298 295 295 293 295 294 292 287 291 297 301 302 301 301 301 299 298 297 297 296 297 299 299 300 300 301 301 302 302 301 299 299 299 299 299 299 299 300 299 299 298 299 298 297 298 298
297 296 294 295 296 294 292 292 293 292 294 296 296 292 292 291 293 298 299 300 299 299 300 298 297 297 297 297 297 298 299 298 299 299 300 300 298 298 299 298 299 294 299 300 299 299 299 299 299 299 299 299 299 300
295 296 296 294 295 294 294 293 293 294 294 294 293 292 294 296 299 301 301 300 300 300 299 298 298 298 298 298 298 297 298 300 302 301 300 297 298 300 300 300 299 299 299 300 294 297 299 299 299 300 300 300 301 301
297 297 295 296 295 293 295 296 296 297 297 296 297 296 296 299 300 301 299 299 299 299 299 299 298 298 297 298 297 298 297 298 299 299 297 297 298 300 300 300 300 301 301 300 300 302 294 297 295 298 297 298 300 300
298 297 297 296 295 297 298 298 299 299 298 298 297 296 295 297 300 301 299 298 298 298 299 299 300 299 298 298 298 298 298 299 299 301 299 297 296 296 298 299 299 299 300 301 301 301 302 300 300 300 300 299 299 298
301 298 296 295 295 299 302 299 299 299 300 299 297 298 297 297 296 301 305 303 302 301 299 300 298 300 300 299 300 300 296 300 300 300 300 297 297 297 297 297 297 300 301 301 301 302 302 302 300 300 300 301 301 300
300 300 301 299 299 301 304 302 300 300 300 300 301 301 298 296 296 302 305 304 304 303 302 302 302 301 301 301 301 301 297 301 300 295 293 293 292 293 295 297 298 300 300 300 300 300 301 302 302 302 301 301 300 301

GFSWCAN_sfc_thetae_144.txt.gz
Theta_e
306 306 305 304 304 305 306 306 306 306 307 307 308 309 309 309 308 307 307 310 304 302 304 305 307 306 308 309 309 311 311 312 312 309 307 308 308 310 310 313 312 311 309 308 310 307 303 317 316 311 320 322 324 324
306 306 305 305 304 304 305 306 305 305 307 307 308 309 309 308 307 306 303 308 308 301 303 308 308 309 308 308 306 311 312 314 315 311 313 313 309 310 312 305 311 309 315 311 313 312 321 321 322 324 323 325 326 327
305 305 305 304 304 304 305 305 305 306 307 306 308 309 309 308 307 306 305 307 304 301 303 304 304 309 311 310 311 306 314 313 317 319 317 316 310 313 307 309 310 312 315 314 315 317 319 320 322 325 327 327 327 328
305 306 305 304 304 304 306 306 305 305 306 306 307 308 309 307 307 306 304 307 303 301 298 302 309 307 311 312 312 311 312 314 314 317 317 316 311 313 312 313 312 313 317 315 316 318 320 321 324 325 325 327 326 326
305 305 305 305 304 305 305 305 306 305 306 306 307 308 308 307 307 307 307 307 307 300 298 301 306 309 311 311 310 312 312 311 315 315 314 312 314 313 316 313 310 315 316 311 311 321 320 321 324 325 324 323 323 323
305 305 305 304 305 305 305 306 305 305 306 306 307 308 308 307 306 305 301 306 307 307 299 298 307 309 311 311 311 312 313 313 315 316 313 314 312 314 310 308 314 317 321 322 319 323 324 325 325 325 323 323 324 323
305 305 305 305 305 305 305 305 305 305 305 306 307 307 307 306 306 301 299 303 305 308 300 299 304 309 310 311 311 311 313 315 314 316 313 315 313 315 312 307 314 316 318 321 323 324 321 322 321 324 323 323 322 324
305 305 304 304 305 305 305 305 305 305 305 306 307 307 306 305 304 303 308 306 306 302 302 299 301 304 311 306 305 312 310 312 311 312 314 314 313 317 311 315 316 318 320 321 321 321 322 323 322 322 323 323 321 320
305 305 305 305 305 305 305 305 305 305 306 307 306 304 306 304 303 306 308 308 308 304 299 301 299 298 310 308 308 308 311 305 311 309 309 311 310 309 313 315 317 319 318 319 321 321 320 320 320 321 321 321 319 318
305 305 305 305 305 305 304 304 305 306 306 304 305 303 298 306 308 309 307 303 302 304 304 299 303 301 305 305 306 306 308 305 302 305 310 306 308 310 311 315 319 320 322 321 318 317 318 318 319 320 320 320 319 317
304 304 304 305 305 304 304 305 306 304 302 305 303 301 309 309 309 307 300 299 300 296 301 301 301 301 308 302 302 308 304 305 298 302 304 303 303 308 313 314 318 322 321 320 319 320 321 321 321 319 318 318 317 316
305 305 305 304 304 305 305 306 305 305 306 303 304 308 311 307 302 295 297 299 297 295 302 302 303 305 308 314 308 310 303 305 296 306 301 299 306 311 314 315 317 320 320 320 321 321 322 321 320 319 318 316 315 314
304 304 304 304 305 306 306 306 306 305 305 309 306 301 301 300 290 290 289 294 296 301 303 304 303 306 307 313 308 305 300 300 307 301 300 305 312 313 316 318 318 320 320 320 320 321 320 319 318 315 313 313 312 309
305 305 305 305 306 307 306 306 305 307 306 301 295 288 294 292 295 294 296 299 303 304 303 303 306 306 310 307 307 299 304 305 298 296 298 308 315 314 317 318 318 317 319 319 319 318 316 313 312 311 310 309 307 306
307 307 307 307 307 306 305 305 305 309 305 297 296 288 292 296 302 301 302 303 304 304 305 305 306 307 307 303 306 303 299 296 300 300 307 313 317 316 317 318 318 318 319 319 319 315 312 312 311 310 309 308 308 308
306 306 307 306 306 305 305 306 307 308 305 297 297 294 300 301 299 300 301 300 307 307 306 304 303 300 300 304 299 297 297 296 302 311 313 316 317 318 319 320 321 320 320 319 316 314 312 312 310 309 309 309 308 308
305 307 305 305 305 305 305 307 307 299 299 296 299 303 300 301 300 302 303 303 309 306 304 306 296 297 306 300 298 304 301 307 310 312 316 318 319 319 321 321 319 320 319 316 314 313 312 312 311 310 308 309 309 310
305 306 305 307 307 307 308 307 302 299 294 301 298 300 302 303 302 304 306 307 304 302 303 300 303 300 299 296 300 308 310 310 312 314 317 319 321 319 320 321 320 319 317 314 313 311 310 309 310 310 312 312 312 311
306 307 306 307 307 305 301 302 303 295 298 300 300 302 302 303 306 307 308 309 309 310 304 303 302 301 303 308 308 309 309 310 312 315 317 319 318 318 320 320 316 313 313 309 307 306 308 311 312 311 311 311 309 310
306 307 307 307 308 303 297 298 302 296 293 296 299 299 300 301 305 306 307 308 308 307 302 301 305 309 308 309 309 310 315 316 315 310 311 316 319 318 319 317 314 315 313 310 308 304 311 312 313 313 313 311 313 309
307 307 307 306 303 299 298 296 296 294 294 293 297 298 298 302 303 304 303 308 303 301 302 308 311 313 314 315 314 317 318 317 316 316 315 312 315 315 315 316 316 314 312 311 312 311 307 310 311 313 313 311 312 312
305 306 303 303 296 295 293 296 293 294 290 292 294 298 297 300 300 301 305 301 297 300 305 306 310 311 314 310 311 313 314 313 311 310 304 306 309 309 311 314 317 315 314 312 312 311 311 311 313 313 312 312 309 314
306 305 302 300 295 293 295 299 295 297 294 300 298 296 297 298 302 307 299 301 302 308 307 307 310 315 313 312 311 311 312 310 310 310 311 311 313 314 315 314 314 311 310 311 315 311 312 302 307 309 312 311 311 311
305 301 298 298 299 299 307 305 306 304 303 301 301 300 302 304 306 303 300 303 310 313 310 310 308 309 311 310 308 310 311 313 312 312 312 311 310 312 313 311 312 313 314 315 314 314 313 312 303 309 309 309 310 308
295 297 297 294 305 302 300 301 301 301 299 301 299 299 301 304 300 299 299 302 306 308 311 312 312 310 309 311 309 311 316 314 310 308 312 313 311 311 310 312 313 314 315 312 311 311 311 310 310 309 308 308 308 308
292 303 296 304 305 304 303 300 301 302 302 300 301 305 305 301 297 295 300 305 306 307 308 308 307 307 308 309 307 310 311 312 315 312 313 315 312 310 307 309 311 311 312 312 311 310 309 309 308 306 306 305 296 305
297 302 306 312 308 307 304 305 306 304 301 301 304 302 302 295 295 300 307 309 308 310 311 311 310 308 307 308 310 312 313 314 314 313 314 316 316 314 311 308 309 311 313 312 311 310 308 308 308 307 307 308 308 307
307 307 301 304 304 306 302 302 301 300 301 306 305 299 296 296 299 306 309 312 313 313 312 311 312 311 310 310 310 311 312 313 313 312 312 313 313 314 313 314 313 295 311 313 313 312 311 309 308 307 307 307 308 309
305 307 307 303 304 304 303 301 302 305 307 304 300 300 301 307 310 310 311 312 314 313 309 308 309 313 312 311 310 310 310 310 309 306 305 306 309 310 314 312 312 312 311 311 296 301 308 308 308 308 308 308 308 309
306 311 305 304 302 301 304 307 305 308 308 308 307 307 306 308 311 314 312 311 309 310 311 311 310 309 307 308 308 309 310 310 309 307 305 305 306 309 310 309 308 309 311 311 310 309 294 302 303 307 306 307 307 307
312 311 305 305 303 306 308 310 310 310 309 307 308 304 305 307 309 312 312 313 311 311 310 310 311 310 310 309 308 308 307 311 311 311 311 310 310 310 310 309 307 307 308 310 310 309 308 307 308 307 307 306 306 304
312 308 307 302 303 309 311 310 309 308 306 305 304 307 306 305 302 308 313 313 309 309 304 309 309 309 312 313 313 313 298 312 312 312 312 312 312 312 311 311 310 310 309 308 309 309 309 307 306 307 307 307 306 307
312 313 312 310 308 306 311 309 305 304 306 305 304 306 306 304 302 308 315 317 314 311 311 312 312 313 314 314 313 313 304 314 309 298 297 294 292 297 305 310 311 310 309 308 308 308 308 308 307 308 308 307 306 306

GFSWCAN_sfc_thetae_150.txt.gz
Theta_e
306 306 306 307 306 305 305 305 306 306 306 307 308 308 310 310 310 308 305 311 303 302 303 306 308 306 308 311 307 312 312 315 313 309 307 307 306 309 310 315 316 312 313 310 313 309 306 322 320 315 328 330 326 327
306 306 305 305 306 305 304 304 306 306 306 307 308 308 310 309 310 309 302 309 308 304 303 308 309 310 310 310 309 312 313 317 314 309 310 310 307 311 312 308 322 313 318 314 317 316 331 329 327 329 330 329 326 328
306 306 306 305 305 304 303 304 305 306 306 307 307 307 309 310 310 308 304 306 307 303 303 304 303 310 312 312 314 307 313 316 320 321 318 313 311 312 308 311 317 319 324 318 321 321 324 325 328 330 332 329 328 333
306 306 305 305 304 304 304 304 305 306 306 306 307 307 309 309 310 308 304 307 306 304 298 304 312 309 314 313 314 315 313 316 317 319 316 315 310 316 311 313 314 318 325 324 317 326 326 326 328 328 329 332 332 332
306 306 305 305 304 305 304 305 305 306 306 306 307 307 308 309 309 309 307 308 310 303 296 302 310 311 312 314 313 315 315 315 315 315 315 314 319 318 316 316 314 320 321 313 316 327 326 328 331 328 329 329 331 331
306 306 305 305 304 305 305 306 306 306 306 306 306 306 308 308 309 304 300 309 311 309 302 299 310 308 310 312 313 314 316 316 317 316 315 318 323 319 313 312 320 322 326 326 326 330 331 330 331 331 330 330 330 330
306 306 305 305 305 305 306 306 306 306 306 306 306 307 308 308 308 300 299 305 305 310 302 301 303 309 311 312 313 315 318 316 317 316 316 316 317 319 315 311 319 321 325 330 331 330 326 327 326 329 329 328 325 328
306 306 306 306 306 306 306 306 306 306 306 306 307 308 308 309 307 303 307 308 307 304 306 298 302 304 311 308 309 316 313 316 318 316 318 316 319 317 312 317 320 324 328 328 328 328 327 328 328 326 327 326 324 323
306 306 306 306 306 306 306 305 305 306 307 307 308 308 308 304 303 308 311 309 310 306 300 302 301 298 311 310 312 313 314 309 316 313 314 315 315 311 317 319 322 322 324 323 324 326 326 325 324 324 324 323 322 321
306 305 306 306 306 306 305 306 307 307 307 308 307 304 300 307 311 311 307 305 304 306 306 302 306 301 308 309 309 309 312 307 305 310 316 312 313 315 319 321 326 325 322 324 324 323 323 322 324 323 323 323 322 321
306 305 305 305 306 306 307 308 307 307 307 308 303 304 310 311 310 308 302 301 300 299 305 306 305 302 311 305 306 310 306 306 301 306 307 307 308 315 322 324 326 326 326 325 326 325 325 324 323 322 322 322 321 320
305 305 305 306 306 307 306 307 307 306 307 304 303 308 310 309 305 299 298 299 298 296 305 305 306 308 311 314 308 310 305 306 298 308 305 303 311 316 319 319 323 325 323 323 324 323 323 323 323 323 321 320 320 320
308 307 307 306 307 308 307 308 307 306 308 314 307 304 304 301 293 294 292 296 298 304 306 307 305 308 309 312 307 306 301 300 308 302 300 305 312 315 317 319 322 323 322 321 321 322 322 323 322 321 320 320 319 316
308 308 307 308 308 307 308 307 307 307 308 302 298 290 297 295 297 300 300 301 305 306 305 308 304 306 308 305 305 300 305 306 298 296 299 310 315 319 319 318 318 318 320 319 320 322 321 320 320 320 318 317 314 312
308 308 308 307 307 307 307 307 306 310 307 300 298 292 297 303 303 303 305 306 306 308 308 308 306 308 306 302 304 302 298 296 300 303 311 316 321 321 321 321 321 321 322 321 321 319 318 316 315 314 314 313 312 312
308 307 308 308 308 308 307 309 312 311 307 302 302 298 303 301 301 303 305 305 309 309 310 308 304 302 300 302 299 298 298 297 305 313 320 319 322 324 325 323 323 323 321 318 317 318 316 314 313 313 312 311 311 311
306 308 306 307 307 306 307 309 309 303 301 300 301 304 303 302 302 306 307 307 312 309 305 306 300 298 304 300 299 302 301 308 314 316 320 325 324 325 326 323 322 321 321 317 320 319 317 316 313 311 311 311 311 312
307 309 308 307 306 310 311 309 304 302 298 302 299 300 303 305 304 305 306 309 309 307 307 303 307 301 300 296 299 308 310 314 320 321 322 323 324 326 327 325 324 322 320 320 319 318 317 314 312 311 312 313 313 313
306 308 308 308 307 306 304 305 306 298 299 301 302 304 303 304 308 311 310 313 312 312 309 306 302 301 304 309 309 312 313 315 318 319 322 323 324 325 324 325 323 320 319 319 318 314 314 317 315 313 312 312 310 310
308 308 308 308 308 305 300 302 308 300 297 300 302 302 303 305 308 310 310 310 310 310 306 305 306 309 310 315 317 317 319 320 320 317 316 318 322 322 321 319 315 320 317 320 315 308 314 317 315 314 313 313 311 310
308 309 308 309 304 301 301 301 300 299 299 299 303 302 303 306 305 305 304 310 309 305 306 308 310 315 319 322 321 324 322 322 317 320 318 317 321 322 316 316 317 315 313 311 312 309 308 310 313 314 313 312 313 313
312 307 309 308 304 303 301 303 298 302 301 303 303 304 301 300 300 302 305 301 301 304 307 312 314 316 317 316 316 319 321 319 320 315 311 312 317 317 318 318 315 314 313 311 311 311 311 313 313 314 314 313 311 313
309 309 307 306 303 302 301 307 300 302 300 302 305 299 300 302 303 307 298 301 303 308 311 317 317 318 316 317 316 315 317 317 313 314 314 314 313 315 314 315 314 312 311 312 314 314 314 309 311 312 314 312 313 312
306 306 304 306 309 302 309 307 309 307 307 305 303 299 302 305 310 304 298 302 306 308 311 313 312 311 313 314 310 312 313 314 312 313 313 312 311 312 316 315 314 315 315 315 316 315 312 314 309 313 313 312 311 311
301 301 304 296 311 307 304 304 305 304 301 302 302 301 305 307 301 300 300 305 311 311 313 313 312 313 309 309 310 313 317 313 311 310 313 315 313 314 313 313 316 315 315 313 312 314 314 314 313 312 311 310 310 309
295 308 301 305 307 303 305 300 302 302 303 302 302 306 306 303 299 298 303 306 307 309 310 312 310 309 309 310 309 310 313 315 315 312 312 313 313 311 310 309 311 311 316 314 313 312 312 311 311 311 310 308 299 307
300 304 308 311 308 308 305 306 306 304 301 300 303 302 302 297 297 304 309 310 310 312 311 311 311 309 308 308 310 313 314 315 315 314 315 315 315 315 313 311 310 312 314 313 313 312 311 311 310 311 310 311 311 310
309 310 305 307 307 308 304 304 302 301 302 305 303 299 297 298 300 307 309 313 313 314 313 312 314 313 312 312 310 310 312 313 315 314 313 313 314 314 314 313 314 301 312 312 311 312 311 310 309 309 309 308 309 311
308 311 309 305 306 306 306 304 304 306 308 305 302 300 302 307 312 311 311 312 314 312 311 310 311 312 312 313 314 313 311 310 308 307 306 306 308 310 314 313 313 313 312 311 299 306 311 310 310 309 309 309 310 310
310 313 307 306 303 302 306 309 307 310 311 310 310 309 308 309 311 314 313 312 312 311 311 312 312 311 309 310 309 311 312 312 312 309 307 307 308 311 313 313 312 312 313 312 309 308 298 306 304 309 307 307 307 306
314 314 308 307 305 310 310 313 313 312 311 309 310 308 307 309 311 314 314 314 313 313 311 311 311 312 311 310 310 309 308 312 313 314 314 313 313 313 313 314 314 313 313 312 312 310 308 307 308 309 309 309 308 306
313 309 309 305 307 311 313 309 309 308 308 307 306 311 309 307 305 309 314 314 312 311 307 311 312 312 314 315 314 314 300 313 313 313 312 311 311 312 312 311 311 312 311 312 311 310 310 309 308 307 308 309 309 308
311 310 309 309 309 308 311 309 309 307 309 308 306 307 307 306 304 310 317 316 314 313 313 312 312 314 316 315 315 314 306 314 309 298 300 299 295 300 307 310 310 309 309 309 309 310 310 309 309 309 309 309 309 309